This demonstration page uses our WeatherBlox Daily Observations layout. Learn more.

Left ArrowRight Arrow

39.95238, -75.16362

Hourly Observations for April 10, 2015

Temp ( °F °C ) Dew Point ( °F °C ) Humidity (%) Winds ( mph kmh ) Pressure ( in mb ) Visibility ( mi km ) Precip ( " mm )
12:02 am 00:02 Cloudy with Drizzle 41 5 39 3.9 93 93 NE 12 19 30.21 1023 3 4 0.01 0.25
12:20 am 00:20 Cloudy with Drizzle 41 5 39 3.9 93 93 E 12 19 30.18 1022 3 5 0.01 0.25
12:31 am 00:31 Cloudy with Drizzle 41 5 39 3.9 93 93 ESE 8 13 30.18 1022 5 8 0.01 0.25
12:50 am 00:50 Cloudy with Drizzle 41 5 39 4 93 93 E 8 13 30.18 1022 7 11 0.01 0.25
12:54 am 00:54 Cloudy with Drizzle 41 5 39 3.9 93 93 E 12 19 30.18 1022 7 11 0.01 0.25
1:02 am 01:02 Cloudy 41 5 38 3.3 89 89 E 14 22 30.18 1022 10 16 0.00 0.03
1:41 am 01:41 Cloudy 42 5.6 39 3.9 89 89 ENE 8 13 30.18 1022 10 16 0.00 0.03
1:54 am 01:54 Cloudy with Light Rain 42 5.6 39 3.9 89 89 E 14 22 30.14 1021 10 16 0.00 0.03
1:57 am 01:57 Cloudy with Light Rain 42 5.6 38 3.3 85 85 E 13 20 30.15 1021 10 16 0.00 0.03
2:54 am 02:54 Cloudy 42 5.6 39 3.9 89 89 E 9 15 30.12 1020 10 16 0.00 0.03
3:54 am 03:54 Cloudy 42 5.6 39 3.9 89 89 E 6 9 30.09 1019 10 16 0.00 0.00
3:56 am 03:56 Cloudy with Mist and Fog 42 5.6 39 3.9 89 89 E 3 6 30.09 1019 6 10 0.00 0.00
3:59 am 03:59 Cloudy with Mist and Fog 42 5.6 39 3.9 89 89 ENE 5 7 30.09 1019 4 6 0.00 0.00
4:05 am 04:05 Cloudy with Drizzle 42 5.6 39 3.9 89 89 E 3 6 30.09 1019 2 2 0.00 0.03
4:20 am 04:20 Cloudy with Drizzle 41 5 39 3.9 93 93 NE 5 7 30.09 1019 2 2 0.00 0.03
4:34 am 04:34 Cloudy with Mist and Fog 41 5 39 4 93 93 NNE 5 7 30.09 1019 3 4 0.00 0.00
4:54 am 04:54 Cloudy with Drizzle 42 5.6 40 4.4 92 92 NNE 3 6 30.08 1019 3 4 0.02 0.51
4:59 am 04:59 Cloudy with Drizzle 42 5.6 40 4.4 92 92 NNE 3 6 30.09 1019 3 5 0.00 0.03
5:03 am 05:03 Cloudy with Light Rain 43 6 39 4 87 87 N 3 6 30.09 1019 2 3 0.00 0.00
5:07 am 05:07 Cloudy with Light Rain 42 5.6 39 3.9 89 89 N 5 7 30.09 1019 1 2 0.00 0.03
5:31 am 05:31 Cloudy with Drizzle 41 5 39 3.9 93 93 NNE 7 11 30.09 1019 2 2 0.03 0.76
5:54 am 05:54 Cloudy with Drizzle 42 5.6 39 3.9 89 89 NE 5 7 30.06 1018 2 2 0.03 0.76
6:00 am 06:00 Cloudy with Drizzle 43 6 39 4 87 87 VRB 5 7 30.06 1018 2 3 0.00 0.00
6:32 am 06:32 Cloudy with Light Rain 43 6 39 4 87 87 ENE 5 7 30.06 1018 2 3 0.00 0.00
6:54 am 06:54 Cloudy with Drizzle 41 5 39 3.9 93 93 ENE 7 11 30.04 1017 2 3 0.01 0.25
7:50 am 07:50 Cloudy with Drizzle 43 6 39 4 87 87 E 9 15 30.00 1016 2 3 0.00 0.03
7:54 am 07:54 Cloudy with Drizzle 42 5.6 40 4.4 92 92 E 8 13 30.00 1016 2 3 0.00 0.03
8:50 am 08:50 Cloudy with Mist and Fog 43 6 41 5 93 93 E 6 9 30.00 1016 3 5 0.00 0.03
8:54 am 08:54 Cloudy with Mist and Fog 42 5.6 41 5 96 96 E 7 11 29.99 1016 4 6 0.00 0.03
9:00 am 09:00 Cloudy with Mist and Fog 42 5.6 41 5 96 96 ENE 5 7 29.97 1015 5 8 0.00 0.00
9:40 am 09:40 Cloudy with Mist and Fog 43 6.1 41 5 93 93 ENE 5 7 29.97 1015 4 6 0.00 0.00
9:54 am 09:54 Cloudy with Mist and Fog 43 6.1 42 5.6 97 97 E 5 7 29.97 1015 3 5 0.00 0.00
10:01 am 10:01 Cloudy with Drizzle 43 6.1 42 5.6 97 97 ENE 5 7 29.97 1015 2 3 0.00 0.03
10:15 am 10:15 Cloudy with Drizzle 43 6.1 42 5.6 97 97 E 6 9 29.97 1015 2 2 0.00 0.03
10:54 am 10:54 Cloudy with Mist and Fog 44 6.7 43 6.1 96 96 VRB 5 7 29.94 1014 1 2 0.00 0.03
11:54 am 11:54 Cloudy with Drizzle 46 7.8 45 7.2 96 96 Calm 29.91 1013 2 3 0.00 0.03
12:24 pm 12:24 Cloudy with Drizzle 47 8.3 46 7.8 97 97 SSW 3 6 29.91 1013 2 3 0.00 0.03
12:54 pm 12:54 Cloudy with Mist and Fog 48 8.9 47 8.3 96 96 WSW 5 7 29.88 1012 3 4 0.00 0.03
1:54 pm 13:54 Cloudy with Mist and Fog 49 9.4 48 8.9 97 97 WSW 8 13 29.89 1012 3 4 0.01 0.25
2:01 pm 14:01 Cloudy with Mist and Fog 49 9.4 48 8.9 97 97 SSW 9 15 29.85 1011 3 4 0.00 0.00
2:11 pm 14:11 Cloudy with Mist and Fog 49 9.4 48 8.9 97 97 SW 10 17 29.85 1011 4 6 0.00 0.00
2:18 pm 14:18 Cloudy with Mist and Fog 50 10 48 9 94 94 SSW 10 17 29.85 1011 5 8 0.00 0.00
2:27 pm 14:27 Cloudy 50 10 48 8.9 93 93 SSW 10 17 29.85 1011 7 11 0.00 0.00
2:54 pm 14:54 Cloudy 50 10 48 8.9 93 93 SSW 8 13 29.83 1010 9 14 0.00 0.00
3:50 pm 15:50 Cloudy 54 12 50 10 88 88 SW 18 30 29.83 1010 10 16 0.00 0.00
3:54 pm 15:54 Cloudy 54 12.2 50 10 87 87 SW 15 24 29.83 1010 10 16 0.00 0.00
4:54 pm 16:54 Cloudy 55 12.8 52 11.1 90 90 SW 15 24 29.82 1010 10 16 0.00 0.00
5:12 pm 17:12 Cloudy 55 12.8 52 11.1 90 90 SW 15 24 29.80 1009 7 11 0.00 0.00
5:51 pm 17:51 Cloudy with Mist and Fog 55 13 52 11 88 88 WSW 12 19 29.80 1009 6 10 0.00 0.00
5:54 pm 17:54 Cloudy with Mist and Fog 56 13.3 52 11.1 87 87 SW 12 19 29.80 1009 6 10 0.00 0.00
6:54 pm 18:54 Cloudy with Mist and Fog 56 13.3 53 11.7 90 90 W 10 17 29.80 1009 5 8 0.00 0.00
7:38 pm 19:38 Cloudy with Mist and Fog 56 13.3 53 11.7 90 90 WSW 8 13 29.80 1009 5 8 0.00 0.00
7:54 pm 19:54 Mostly Cloudy with Mist and Fog 56 13.3 53 11.7 90 90 SW 7 11 29.80 1009 5 8 0.00 0.00
8:54 pm 20:54 Mostly Cloudy with Mist and Fog 54 12.2 52 11.1 93 93 SW 7 11 29.81 1010 5 8 0.00 0.00
9:54 pm 21:54 Mostly Cloudy with Mist and Fog 54 12.2 52 11.1 93 93 NNW 6 9 29.83 1010 5 8 0.00 0.00
10:54 pm 22:54 Mostly Cloudy with Mist and Fog 55 12.8 52 11.1 90 90 VRB 3 6 29.84 1011 5 8 0.00 0.00
11:54 pm 23:54 Mostly Cloudy with Mist and Fog 56 13.3 51 10.6 84 84 NW 10 17 29.86 1011 6 10 0.00 0.00

Powered by AerisWeather